TimeAST,TemperatureF,Dew PointF,Humidity,Sea Level PressureIn,VisibilityMPH,Wind Direction,Wind SpeedMPH,Gust SpeedMPH,PrecipitationIn,Events,Conditions,WindDirDegrees,DateUTC
12:00 AM,-9999,-9999,N/A,30.01,-9999.0,NE,11.5,-,N/A,,Unknown,50,2013-09-10 04:00:00
1:00 AM,-9999,-9999,N/A,29.98,-9999.0,ENE,10.4,-,N/A,,Unknown,60,2013-09-10 05:00:00
2:00 AM,,32,,,,ENE,11.5,,,,,60,2013-09-10 06:00:00
2:00 AM,-9999,-9999,N/A,29.98,-9999.0,ENE,11.5,-,N/A,,Unknown,60,2013-09-10 06:00:00
3:00 AM,-9999,-9999,N/A,29.98,-9999.0,NE,8.1,-,N/A,,Unknown,40,2013-09-10 07:00:00
5:00 AM,,32,,,,ENE,8.1,,,,,60,2013-09-10 09:00:00
5:00 AM,-9999,-9999,N/A,29.98,-9999.0,ENE,8.1,-,N/A,,Unknown,60,2013-09-10 09:00:00
6:00 AM,-9999,-9999,N/A,29.98,-9999.0,ENE,10.4,-,N/A,,Unknown,60,2013-09-10 10:00:00
7:00 AM,-9999,-9999,N/A,30.01,-9999.0,ENE,10.4,-,N/A,,Unknown,70,2013-09-10 11:00:00
8:00 AM,,,,,,East,12.7,,,,,90,2013-09-10 12:00:00
8:00 AM,-9999,-9999,N/A,30.04,-9999.0,ENE,10.4,-,N/A,,Unknown,70,2013-09-10 12:00:00
9:00 AM,-9999,-9999,N/A,30.04,-9999.0,ENE,11.5,-,N/A,,Unknown,70,2013-09-10 13:00:00
10:00 AM,-9999,-9999,N/A,30.06,-9999.0,ENE,13.8,-,N/A,,Unknown,70,2013-09-10 14:00:00
11:00 AM,,32,,,,ENE,15.0,,,,,70,2013-09-10 15:00:00
11:00 AM,-9999,-9999,N/A,30.04,-9999.0,ENE,15.0,-,N/A,,Unknown,70,2013-09-10 15:00:00
12:00 PM,-9999,-9999,N/A,30.04,-9999.0,Variable,16.1,-,N/A,,Unknown,0,2013-09-10 16:00:00
2:00 PM,,32,,,,ENE,13.8,,,,,60,2013-09-10 18:00:00
2:00 PM,-9999,-9999,N/A,29.98,-9999.0,ENE,13.8,-,N/A,,Unknown,60,2013-09-10 18:00:00
3:00 PM,-9999,-9999,N/A,29.98,-9999.0,ENE,13.8,-,N/A,,Unknown,60,2013-09-10 19:00:00
4:00 PM,-9999,-9999,N/A,29.98,-9999.0,ENE,11.5,-,N/A,,Unknown,60,2013-09-10 20:00:00
5:00 PM,-9999,-9999,N/A,29.98,-9999.0,ENE,11.5,-,N/A,,Unknown,60,2013-09-10 21:00:00
6:00 PM,-9999,-9999,N/A,29.98,-9999.0,ENE,9.2,-,N/A,,Unknown,60,2013-09-10 22:00:00
7:00 PM,-9999,-9999,N/A,29.98,-9999.0,NE,10.4,-,N/A,,Unknown,40,2013-09-10 23:00:00
8:00 PM,,32,,,,ENE,10.4,,,,,60,2013-09-11 00:00:00
8:00 PM,-9999,-9999,N/A,30.01,-9999.0,ENE,10.4,-,N/A,,Unknown,60,2013-09-11 00:00:00
9:00 PM,-9999,-9999,N/A,30.01,-9999.0,ENE,10.4,-,N/A,,Unknown,60,2013-09-11 01:00:00
10:00 PM,-9999,-9999,N/A,30.01,-9999.0,ENE,10.4,-,N/A,,Unknown,60,2013-09-11 02:00:00
11:00 PM,,,,,,ENE,10.4,,,,,70,2013-09-11 03:00:00
11:00 PM,-9999,-9999,N/A,30.01,-9999.0,ENE,10.4,-,N/A,,Unknown,60,2013-09-11 03:00:00